Regional Weather Roundup
Issued by NWS

Home | Current Version | Previous Version | Text Only | Print | Product List | Glossary Off
Versions: 1 2 3 4 5 6 7 8 9 10 11 12 13 14 15 16 17 18 19 20 21 22 23 24 25 26 27 28 29 30 31 32 33 34 35 36 37 38 39 40 41 42 43 44 45 46 47 48 49 50

000
ASUS43 KLMK 020602
RWRKY
KENTUCKY REGIONAL WEATHER ROUNDUP
NATIONAL WEATHER SERVICE LOUISVILLE KY
200 AM EDT WED SEP 02 2015

NOTE "FAIR" INDICATES FEW OR NO CLOUDS BELOW 12,000 FEET
WITH NO SIGNIFICANT WEATHER AND/OR OBSTRUCTIONS TO VISIBILITY.

KYZ001>023-026-027-061>063-070>075-020700-
WESTERN AND SOUTH CENTRAL KENTUCKY

CITY           SKY/WX    TMP DP  RH WIND       PRES   REMARKS
PADUCAH        FAIR      69  66  90 CALM      30.08F FOG
HENDERSON      FAIR      68  64  88 CALM      30.09S
OWENSBORO      FAIR      73  69  87 CALM      30.10F
HOPKINSVILLE   FAIR      72  68  88 N3        30.09F
BOWLING GREEN  FAIR      71  67  87 CALM      30.11F
GLASGOW        NOT AVBL
$$

KYZ024-025-028>034-038-045-046-053-020700-
NORTH CENTRAL KENTUCKY

CITY           SKY/WX    TMP DP  RH WIND       PRES   REMARKS
LOUISVILLE/SDF FAIR      76  67  73 CALM      30.10F
LOUISVILLE/LOU FAIR      72  70  93 CALM      30.11F FOG
FORT KNOX      FAIR      68  64  88 CALM      30.11S
$$

KYZ035>037-039>044-047>052-055>060-089>105-020700-
NORTHEAST KENTUCKY

CITY           SKY/WX    TMP DP  RH WIND       PRES   REMARKS
LEXINGTON      FAIR      70  65  84 CALM      30.13F
COVINGTON      FAIR      70  67  90 CALM      30.12F
FRANKFORT      FAIR      67  65  93 CALM      30.11F
$$

KYZ054-064>069-076>088-106>120-020700-
SOUTHEAST KENTUCKY

CITY           SKY/WX    TMP DP  RH WIND       PRES   REMARKS
JACKSON        FAIR      73  63  70 CALM      30.15S
LONDON         FAIR      70  64  81 CALM      30.15S
SOMERSET       NOT AVBL
MIDDLESBORO    NOT AVBL
MONTICELLO     FAIR      65  65 100 CALM      30.17S FOG
$$




USA.gov is the U.S. government's official web portal to all federal, state and local government web resources and services.